Location: Hermaringen
(48.5952°N, 10.2585°E)
Time: 06:08:28
(UTC+00:00)

SJ 16-02 - Pass Details

Date: 18 November 2025
Orbit: 585 x 594 km, 75.0° (Epoch: 06 December)

Event Time Altitude Azimuth Distance (km) Brightness Sun altitude
Rises 16:39:23 0° 166° (SSE) 2,823 4.8 -10.5°
Reaches altitude 10° 16:41:56 10° 152° (SSE) 1,927 3.8 -10.9°
Maximum altitude 16:45:21 23° 99° (E) 1,268 2.4 -11.4°
Enters shadow 16:47:29 16° 60° (ENE) 1,563 2.8 -11.7°
